Time,TemperatureF,DewpointF,PressureIn,WindDirection,WindDirectionDegrees,WindSpeedMPH,WindSpeedGustMPH,Humidity,HourlyPrecipIn,Conditions,Clouds,dailyrainin,SoftwareType,DateUTC
2013-09-30 00:00:00,78.1,70.3,29.97,East,94,6.0,7.0,77,0.00,,,0.00,Wunderground v.1.15,2013-09-30 04:00:00,
2013-09-30 00:05:00,77.9,70.1,29.97,ESE,103,6.0,7.0,77,0.00,,,0.00,Wunderground v.1.15,2013-09-30 04:05:00,
2013-09-30 00:10:00,77.8,70.4,29.96,East,94,6.0,7.0,78,0.00,,,0.00,Wunderground v.1.15,2013-09-30 04:10:00,
2013-09-30 00:20:00,77.7,69.9,29.96,East,98,8.0,8.0,77,0.00,,,0.00,Wunderground v.1.15,2013-09-30 04:20:00,
2013-09-30 00:25:00,77.7,69.9,29.96,ESE,111,7.0,8.0,77,0.00,,,0.00,Wunderground v.1.15,2013-09-30 04:25:00,
2013-09-30 00:30:00,77.7,69.9,29.96,East,94,7.0,7.0,77,0.00,,,0.00,Wunderground v.1.15,2013-09-30 04:30:00,
2013-09-30 00:35:00,77.7,70.3,29.96,East,96,6.0,7.0,78,0.00,,,0.00,Wunderground v.1.15,2013-09-30 04:35:00,
2013-09-30 00:40:00,77.6,70.2,29.96,ESE,102,5.0,5.0,78,0.00,,,0.00,Wunderground v.1.15,2013-09-30 04:40:00,
2013-09-30 00:45:00,77.7,70.3,29.96,East,92,6.0,6.0,78,0.00,,,0.00,Wunderground v.1.15,2013-09-30 04:45:00,
2013-09-30 00:55:00,77.6,69.8,29.96,East,88,5.0,5.0,77,0.00,,,0.00,Wunderground v.1.15,2013-09-30 04:55:00,
2013-09-30 01:00:00,77.8,70.4,29.96,East,91,5.0,5.0,78,0.00,,,0.00,Wunderground v.1.15,2013-09-30 05:00:00,
2013-09-30 01:05:00,77.6,69.8,29.95,East,94,5.0,6.0,77,0.00,,,0.00,Wunderground v.1.15,2013-09-30 05:05:00,
2013-09-30 01:15:00,77.5,70.5,29.95,East,93,5.0,6.0,79,0.00,,,0.00,Wunderground v.1.15,2013-09-30 05:15:00,
2013-09-30 01:20:00,77.7,71.4,29.95,East,80,6.0,7.0,81,0.00,,,0.00,Wunderground v.1.15,2013-09-30 05:20:00,
2013-09-30 01:30:00,77.6,71.3,29.95,East,83,7.0,7.0,81,0.00,,,0.00,Wunderground v.1.15,2013-09-30 05:30:00,
2013-09-30 01:35:00,77.7,71.0,29.94,ENE,76,7.0,8.0,80,0.00,,,0.00,Wunderground v.1.15,2013-09-30 05:35:00,
2013-09-30 01:40:00,77.5,70.8,29.94,East,94,7.0,8.0,80,0.00,,,0.00,Wunderground v.1.15,2013-09-30 05:40:00,
2013-09-30 01:50:00,77.5,70.8,29.94,East,96,7.0,7.0,80,0.00,,,0.00,Wunderground v.1.15,2013-09-30 05:50:00,
2013-09-30 01:55:00,77.3,70.3,29.94,East,98,6.0,7.0,79,0.00,,,0.00,Wunderground v.1.15,2013-09-30 05:55:00,
2013-09-30 02:05:00,77.4,70.4,29.94,East,84,5.0,6.0,79,0.00,,,0.00,Wunderground v.1.15,2013-09-30 06:05:00,
2013-09-30 02:10:00,77.5,70.5,29.94,East,88,5.0,5.0,79,0.00,,,0.00,Wunderground v.1.15,2013-09-30 06:10:00,
2013-09-30 02:20:00,77.5,70.8,29.94,East,86,5.0,7.0,80,0.00,,,0.00,Wunderground v.1.15,2013-09-30 06:20:00,
2013-09-30 02:25:00,77.5,70.8,29.94,East,89,6.0,7.0,80,0.00,,,0.00,Wunderground v.1.15,2013-09-30 06:25:00,
2013-09-30 02:35:00,77.4,70.4,29.94,East,85,5.0,6.0,79,0.00,,,0.00,Wunderground v.1.15,2013-09-30 06:35:00,
2013-09-30 02:40:00,77.5,70.8,29.94,East,88,6.0,7.0,80,0.00,,,0.00,Wunderground v.1.15,2013-09-30 06:40:00,
2013-09-30 02:50:00,77.4,71.1,29.94,ENE,77,6.0,6.0,81,0.00,,,0.00,Wunderground v.1.15,2013-09-30 06:50:00,
2013-09-30 02:55:00,77.4,71.1,29.94,ENE,61,5.0,6.0,81,0.00,,,0.00,Wunderground v.1.15,2013-09-30 06:55:00,
2013-09-30 03:05:00,77.5,70.8,29.94,ENE,64,6.0,7.0,80,0.00,,,0.00,Wunderground v.1.15,2013-09-30 07:05:00,
2013-09-30 03:10:00,77.5,71.2,29.94,ENE,59,7.0,7.0,81,0.00,,,0.00,Wunderground v.1.15,2013-09-30 07:10:00,
2013-09-30 03:20:00,77.4,71.1,29.94,NE,54,6.0,6.0,81,0.00,,,0.00,Wunderground v.1.15,2013-09-30 07:20:00,
2013-09-30 03:25:00,77.3,70.6,29.94,ENE,78,7.0,7.0,80,0.00,,,0.00,Wunderground v.1.15,2013-09-30 07:25:00,
2013-09-30 03:35:00,77.4,70.7,29.93,ENE,72,7.0,7.0,80,0.00,,,0.00,Wunderground v.1.15,2013-09-30 07:35:00,
2013-09-30 03:40:00,77.3,71.0,29.93,ENE,76,7.0,7.0,81,0.00,,,0.00,Wunderground v.1.15,2013-09-30 07:40:00,
2013-09-30 03:50:00,77.1,70.8,29.93,ENE,76,7.0,7.0,81,0.00,,,0.00,Wunderground v.1.15,2013-09-30 07:50:00,
2013-09-30 03:55:00,77.1,71.2,29.93,ENE,76,6.0,7.0,82,0.00,,,0.00,Wunderground v.1.15,2013-09-30 07:55:00,
2013-09-30 04:05:00,77.0,70.7,29.93,ENE,67,7.0,10.0,81,0.00,,,0.00,Wunderground v.1.15,2013-09-30 08:05:00,
2013-09-30 04:10:00,77.0,70.7,29.93,NE,55,7.0,7.0,81,0.00,,,0.00,Wunderground v.1.15,2013-09-30 08:10:00,
2013-09-30 04:15:00,77.1,71.2,29.93,NE,49,6.0,8.0,82,0.00,,,0.00,Wunderground v.1.15,2013-09-30 08:15:00,
2013-09-30 04:25:00,76.9,71.0,29.93,ENE,69,8.0,10.0,82,0.00,,,0.00,Wunderground v.1.15,2013-09-30 08:25:00,
2013-09-30 04:35:00,76.7,70.8,29.93,ENE,59,7.0,8.0,82,0.00,,,0.00,Wunderground v.1.15,2013-09-30 08:35:00,
2013-09-30 04:40:00,76.8,70.9,29.93,NE,53,8.0,8.0,82,0.00,,,0.00,Wunderground v.1.15,2013-09-30 08:40:00,
2013-09-30 04:50:00,76.8,70.9,29.93,ENE,71,8.0,11.0,82,0.00,,,0.00,Wunderground v.1.15,2013-09-30 08:50:00,
2013-09-30 05:00:00,76.7,70.8,29.92,ENE,71,10.0,10.0,82,0.00,,,0.00,Wunderground v.1.15,2013-09-30 09:00:00,
2013-09-30 05:10:00,76.7,71.5,29.93,ENE,64,9.0,10.0,84,0.00,,,0.00,Wunderground v.1.15,2013-09-30 09:10:00,
2013-09-30 05:15:00,76.5,71.3,29.93,ENE,61,10.0,11.0,84,0.00,,,0.00,Wunderground v.1.15,2013-09-30 09:15:00,
2013-09-30 05:20:00,76.6,71.4,29.92,ENE,73,11.0,11.0,84,0.00,,,0.00,Wunderground v.1.15,2013-09-30 09:20:00,
2013-09-30 05:30:00,76.5,70.9,29.92,ENE,63,12.0,12.0,83,0.00,,,0.00,Wunderground v.1.15,2013-09-30 09:30:00,
2013-09-30 05:35:00,76.3,70.8,29.93,NE,44,10.0,12.0,83,0.00,,,0.00,Wunderground v.1.15,2013-09-30 09:35:00,
2013-09-30 05:40:00,76.3,70.8,29.94,NE,49,7.0,7.0,83,0.00,,,0.01,Wunderground v.1.15,2013-09-30 09:40:00,
2013-09-30 05:50:00,76.1,70.9,29.94,NE,40,1.0,1.0,84,0.09,,,0.02,Wunderground v.1.15,2013-09-30 09:50:00,
2013-09-30 05:55:00,76.0,70.8,29.94,NE,54,0.0,7.0,84,0.06,,,0.02,Wunderground v.1.15,2013-09-30 09:55:00,
2013-09-30 06:05:00,76.1,70.9,29.94,NE,55,7.0,7.0,84,0.00,,,0.02,Wunderground v.1.15,2013-09-30 10:05:00,
2013-09-30 06:10:00,76.1,70.9,29.94,ENE,63,7.0,7.0,84,0.00,,,0.02,Wunderground v.1.15,2013-09-30 10:10:00,
2013-09-30 06:20:00,76.0,70.8,29.94,ENE,63,8.0,8.0,84,0.00,,,0.02,Wunderground v.1.15,2013-09-30 10:20:00,
2013-09-30 06:25:00,76.1,70.9,29.94,ENE,59,8.0,10.0,84,0.00,,,0.02,Wunderground v.1.15,2013-09-30 10:25:00,
2013-09-30 06:35:00,76.2,71.0,29.94,ENE,65,8.0,9.0,84,0.00,,,0.02,Wunderground v.1.15,2013-09-30 10:35:00,
2013-09-30 06:40:00,76.3,71.1,29.94,NE,53,8.0,10.0,84,0.00,,,0.02,Wunderground v.1.15,2013-09-30 10:40:00,
2013-09-30 06:45:00,76.4,71.6,29.94,ENE,74,8.0,10.0,85,0.00,,,0.02,Wunderground v.1.15,2013-09-30 10:45:00,
2013-09-30 06:55:00,76.2,71.4,29.94,ENE,78,7.0,8.0,85,0.00,,,0.02,Wunderground v.1.15,2013-09-30 10:55:00,
2013-09-30 07:00:00,76.2,71.7,29.95,ENE,69,6.0,7.0,86,0.00,,,0.02,Wunderground v.1.15,2013-09-30 11:00:00,
2013-09-30 07:10:00,76.1,71.6,29.95,ENE,66,6.0,8.0,86,0.00,,,0.02,Wunderground v.1.15,2013-09-30 11:10:00,
2013-09-30 07:20:00,76.1,71.3,29.95,ENE,66,9.0,9.0,85,0.00,,,0.02,Wunderground v.1.15,2013-09-30 11:20:00,
2013-09-30 07:25:00,76.2,71.7,29.95,ENE,69,8.0,9.0,86,0.00,,,0.02,Wunderground v.1.15,2013-09-30 11:25:00,